Location: Oravansaari
(62.1667°N, 25.9167°E)
Time: 20:04:31
(UTC+00:00)

Daily predictions for brighter satellites

Satellite Brightness Start Highest point End
(mag) Time Altitude Azimuth Time Altitude Azimuth Time Altitude Azimuth
CZ-2C R/B 3.3 16:22:46 10° SSE 16:28:25 79° ENE 16:34:17 10° NNW
Okean-O 3.0 16:25:27 10° SSE 16:29:54 73° WSW 16:34:22 10° NNW
Cosmos 1689 Rocket 2.1 16:27:30 10° NNE 16:30:26 55° ESE 16:33:22 10° S
NOSS 2-3 (E) 4.3 16:25:32 10° W 16:30:33 81° N 16:37:07 10° E
H-2A R/B 2.1 16:25:28 10° SSE 16:30:35 68° ENE 16:35:53 10° NNW
Cosmos 1937 Rocket 3.8 16:25:37 10° SW 16:30:50 76° NW 16:36:02 10° NE
Cosmos 2151 Rocket 3.8 16:27:24 10° S 16:31:47 51° E 16:36:11 10° NNE
Cosmos 2084 3.6 16:27:54 10° WNW 16:32:23 87° S 16:36:53 10° ESE
Cosmos 1975 3.8 16:28:35 10° SSW 16:32:34 54° WNW 16:36:35 10° N
Cosmos 2285 Rocket 4.4 16:27:25 10° S 16:33:16 41° ESE 16:39:11 10° NE
NOSS 8 (E) 4.2 16:31:07 10° WSW 16:34:09 85° SSE 16:37:35 10° ENE
KORONAS-FOTON 4.0 16:30:48 10° NNW 16:34:47 85° WSW 16:38:42 10° SSE
Meteor 1-12 Rocket 4.3 16:29:06 10° S 16:34:51 67° E 16:40:30 10° NNE
Cosmos 1025 Rocket 4.0 16:31:19 10° NNW 16:35:38 54° W 16:39:56 10° S
SAR-Lupe-4 3.6 16:32:45 10° NNE 16:36:23 87° ESE 16:39:59 10° SSW
NOSS 8 (H) 4.2 16:33:54 10° WSW 16:36:55 73° SSE 16:40:22 10° ENE
Nadezhda 4 Rocket 4.2 16:36:39 10° NNW 16:42:48 80° W 16:48:57 10° S
NOSS 2-2 (C) 3.5 16:39:27 10° SW 16:43:09 60° SSE 16:47:46 10° ENE
Cosmos 1891 Rocket 4.4 16:37:24 10° S 16:43:26 77° E 16:49:29 10° NNE
Cosmos 1300 Rocket 3.5 16:39:02 10° S 16:43:29 76° ESE 16:47:58 10° NNE
SJ-6B 3.5 16:40:59 10° SE 16:44:31 36° ENE 16:48:08 10° N
ISS -1.2 16:43:01 10° SW 16:44:46 14° S 16:46:33 10° SSE
Cosmos 1833 Rocket 3.1 16:39:31 10° NW 16:45:10 68° SW 16:50:46 10° SSE
Cosmos 2278 Rocket 3.3 16:41:15 10° SSE 16:45:22 21° ESE 16:49:28 10° ENE
Cosmos 2251 Rocket 3.6 16:42:29 10° NW 16:47:54 77° NE 16:53:15 10° SE
Cosmos 1805 3.7 16:45:34 10° SSE 16:49:14 39° E 16:52:55 10° NNE
ATLAS CENTAUR R/B 1.3 16:45:58 10° WNW 16:49:40 60° N 16:53:09 11° E
COSMOS 2406 4.0 16:45:33 10° NW 16:51:04 54° WSW 16:56:35 10° SSE
SL-27 R/B 4.4 16:48:56 10° NNW 16:51:36 19° NNE 16:54:16 10° ENE
Cosmos 1844 3.8 16:46:16 10° SSW 16:51:45 53° ESE 16:57:12 10° NE
OBJECT-B 2.1 16:49:32 10° ESE 16:52:15 24° ENE 16:54:59 10° N
Cosmos 2298 Rocket 4.0 16:47:07 10° SSW 16:52:27 75° ESE 16:57:47 10° NE
Cosmos 1125 Rocket 3.6 16:47:40 10° SSW 16:52:52 56° ESE 16:58:05 10° NE
CSL-04 Rocket 3.9 16:47:55 10° SSE 16:53:28 82° WSW 16:59:05 10° NNW
Okean 1-7 Rocket 3.9 16:50:00 10° N 16:54:27 48° ENE 16:58:53 10° SE
Exosat Rocket 4.0 16:50:11 10° S 16:54:48 39° ESE 16:59:49 10° NE
SAR-Lupe-1 4.4 16:52:17 10° NNE 16:55:53 71° WNW 16:59:28 10° SSW
NOSS 2-3 (D) 4.4 16:52:24 10° W 16:57:30 79° N 17:04:03 11° E
Okean 1 Rocket 3.3 16:54:13 10° SSE 16:58:31 47° E 17:02:49 10° NNE
CSL-04 Debris 4.5 16:53:46 10° SSE 16:59:10 73° WSW 17:04:37 10° NNW
HJ-1C 3.5 16:58:01 10° SSE 17:01:20 77° WSW 17:04:42 10° NNW
Lacrosse 4 Rocket 2.5 16:59:08 10° WNW 17:03:00 42° SW 17:06:54 10° SSE
Uosat 12 SS-18 rocket 4.1 16:58:48 10° WNW 17:03:08 87° SSW 17:07:28 12° ESE
Cosmos 1340 Rocket 3.5 17:01:31 10° SSE 17:05:05 32° E 17:08:43 10° NNE
Cosmos 1674 3.9 17:01:34 10° NNW 17:05:17 46° W 17:08:58 10° S
Cosmos 2266 Rocket 4.4 17:00:01 10° N 17:05:44 42° ENE 17:11:27 10° SE
Lacrosse 5 rocket 3.0 17:03:02 10° W 17:06:48 29° SSW 17:10:41 10° SE
CZ-4C R/B 3.7 17:04:09 10° SE 17:06:59 14° ESE 17:10:05 10° ENE
YAOGAN 1 3.7 17:04:11 10° S 17:08:23 48° W 17:12:37 10° NNW
SKYMED 2 3.7 17:04:57 10° NNE 17:09:20 82° WNW 17:13:42 10° SSW
Cosmos 2227 Rocket 3.5 17:07:01 10° WNW 17:12:12 35° N 17:17:24 10° ENE
H-2A R/B 4.3 17:09:14 10° N 17:13:07 28° NW 17:16:55 10° WSW
Meteor 1-24 Rocket 3.9 17:09:07 10° NNW 17:14:44 79° WSW 17:20:32 10° S
CZ-2C R/B 3.4 17:11:30 10° NNE 17:16:29 32° E 17:21:29 10° SSE
Cosmos 1892 Rocket 3.5 17:12:55 10° NNW 17:17:18 83° ENE 17:21:41 10° SSE
Cosmos 2150 Rocket 4.2 17:12:03 10° SW 17:17:33 87° NW 17:23:05 10° NE
Cosmos 1140 Rocket 3.8 17:12:32 10° NNW 17:17:35 52° NE 17:21:40 15° ESE
Meteor 1-15 Rocket 4.2 17:12:13 10° S 17:17:58 76° ESE 17:23:51 10° NNE
Cosmos 1758 4.5 17:15:17 10° SE 17:18:31 23° E 17:21:48 10° NNE
MOS 1 Rocket 3.3 17:14:53 10° NNE 17:19:07 47° E 17:23:16 10° S
NOSS 8 (F) 4.4 17:17:51 10° W 17:20:55 75° N 17:23:40 16° ENE
USA 229 DEB 3.9 17:14:04 10° W 17:21:00 82° N 17:27:21 15° E
USA 229 3.9 17:14:10 10° W 17:21:06 82° N 17:27:26 15° E
ARGOS 3.4 17:15:56 10° SSE 17:21:19 76° WSW 17:26:47 10° NNW
SPOT 3 Rocket 3.8 17:16:42 11° SE 17:21:32 51° ENE 17:26:33 10° NNW
CZ-4 R/B 3.4 17:18:56 10° SSW 17:22:42 33° W 17:26:25 10° NNW
NOSS 2-3 (C) 4.4 17:18:35 10° W 17:23:50 80° N 17:29:33 15° E
Cosmos 2034 Rocket 4.1 17:17:41 10° SSW 17:24:02 88° WNW 17:30:22 10° NNE
Cosmos 1703 4.3 17:21:40 10° N 17:25:05 28° ENE 17:26:58 19° ESE
Spot 2 Rocket 4.5 17:22:08 16° E 17:25:21 30° NE 17:29:45 10° N
Okean 2 Rocket 3.9 17:21:19 10° SSW 17:25:42 56° WNW 17:30:06 10° N
Cosmos 1626 2.8 17:22:12 10° NNW 17:25:51 56° W 17:29:30 10° S
DMSP B5D1-3 4.5 17:21:39 10° NNE 17:26:45 67° ESE 17:31:51 10° S
Cosmos 2292 Rocket 3.3 17:24:29 10° N 17:27:22 39° ENE 17:29:21 19° SE
MOS 1 4.3 17:22:23 10° SSE 17:28:06 82° ENE 17:33:51 10° NNW
Meteor 1-22 Rocket 4.5 17:23:02 10° S 17:28:57 57° E 17:34:57 10° NNE
Cosmos 614 Rocket 3.9 17:24:26 10° NW 17:29:39 81° NE 17:34:11 13° SE
NOSS 3-4 (A) 3.8 17:24:12 10° SSW 17:29:54 44° SE 17:36:05 10° ENE
NOSS 3-4 (C) 3.8 17:24:19 10° SSW 17:30:00 44° SE 17:36:12 10° ENE
Terra 3.6 17:27:34 13° ENE 17:30:02 18° NE 17:33:17 10° N
CZ-4B R/B 4.0 17:27:30 10° N 17:30:26 26° WNW 17:33:23 10° WSW
SL-14 R/B 3.9 17:27:04 10° NNW 17:31:00 59° W 17:34:56 10° S
Cosmos 1544 Rocket 4.4 17:28:30 13° SE 17:31:32 27° E 17:35:13 10° NNE
FREGAT/IRIS 2.1 17:30:33 18° SSE 17:32:22 72° ENE 17:34:59 10° NNW
USA 116 3.6 17:29:19 10° NNE 17:33:04 78° ESE 17:37:20 10° SSW
Ariane Rocket 3.0 17:28:04 10° SSE 17:33:10 88° WSW 17:38:20 10° NNW
NOSS 3-1 (A) 3.8 17:26:52 10° W 17:33:21 82° N 17:39:40 17° E
Cosmos 2098 Rocket 3.9 17:26:51 10° NNW 17:33:30 66° ENE 17:38:51 10° SSE
ATLAS 3B R/B 4.1 17:28:49 10° WNW 17:34:50 34° SW 17:41:01 10° S
Resurs 01 Rocket 2.0 17:32:27 18° SE 17:35:30 45° ENE 17:39:46 10° N
USA 186 2.0 17:33:22 10° S 17:36:39 74° WSW 17:39:54 10° NNW
ADEOS Rocket 4.4 17:31:47 10° NNE 17:36:47 37° NW 17:41:49 10° WSW
NOSS 2-2 (E) 3.6 17:33:28 10° WSW 17:37:26 88° NNW 17:41:48 14° ENE
Cosmos 1470 3.3 17:34:15 10° SSE 17:37:48 36° E 17:41:24 10° NNE
Cosmos 407 Rocket 3.5 17:34:08 10° NW 17:39:19 74° NE 17:43:12 18° SE
OPS 8737 4.1 17:36:48 10° WNW 17:39:40 71° SSW 17:41:09 27° SE
Aureole 2 Rocket 2.5 17:36:58 10° S 17:40:05 43° ESE 17:43:09 10° NE
Cosmos 1766 3.2 17:36:09 10° SSW 17:40:08 86° ESE 17:44:10 10° NNE
MetOp-A 4.1 17:36:48 10° SSE 17:42:11 90° ENE 17:47:36 10° NNW
Cosmos 2219 4.4 17:38:28 10° WNW 17:43:40 35° N 17:48:40 11° ENE
Cosmos 1634 Rocket 3.9 17:39:36 10° S 17:45:47 73° E 17:52:02 10° NNE
Cosmos 1733 3.1 17:42:11 10° SSW 17:46:00 88° ESE 17:49:50 10° NNE
NOSS 2-2 (D) 3.5 17:44:46 10° WSW 17:48:41 88° NNW 17:52:35 16° ENE
Resurs 1-3 3.5 17:45:36 16° SSE 17:49:07 72° ENE 17:53:32 10° NNW
ARIANE 5 R/B 3.2 17:47:19 24° ESE 17:49:22 39° ENE 17:53:26 10° N
IGS 5A 4.2 17:47:55 25° ESE 17:49:35 35° ENE 17:53:23 10° N
NOSS 7 (A) 4.4 17:48:09 10° WSW 17:51:04 71° SSE 17:52:18 32° E
Cosmos 2082 Rocket 3.2 17:45:45 10° NW 17:51:05 45° WSW 17:56:25 10° S
RESURS DK-1 3.1 17:47:29 10° S 17:51:08 31° ESE 17:53:51 16° ENE
SL-08 RB Rocket 4.3 17:47:34 10° S 17:52:02 58° WSW 17:56:30 10° NNW
SJ 16-02 3.8 17:48:51 10° WNW 17:52:09 20° NNW 17:55:27 10° NNE
ATLAS 2AS CENTAUR R/B 3.1 17:44:53 10° SSW 17:52:37 57° SE 18:00:08 10° ENE
Cosmos 1954 Rocket 4.2 17:47:36 10° NW 17:52:44 58° NE 17:55:42 25° ESE
Cosmos 1726 2.9 17:54:10 30° E 17:54:25 30° E 17:57:44 10° NNE
Cosmos 1602 Rocket 3.6 17:50:12 10° NNW 17:54:37 62° ENE 17:57:24 22° SSE
USA 290 2.4 17:52:33 10° NW 17:55:47 69° WSW 17:57:24 27° SSE
Cosmos 1461 4.3 17:52:14 10° WNW 17:56:41 39° SW 18:00:19 14° SSE
COSMO-SKYMED 1 4.1 17:53:13 10° N 17:57:18 40° WNW 18:01:22 10° SW
Cosmos 2297 Rocket 3.4 17:52:37 10° WNW 17:57:49 35° N 18:02:23 13° ENE
Cosmos 676 Rocket 4.1 17:54:03 10° NW 17:59:15 62° NE 18:02:06 26° ESE
ERS-1 Rocket 3.9 17:57:55 23° E 18:00:04 33° NE 18:04:33 10° N
Meteor 2-10 4.4 17:55:26 10° SSE 18:00:27 42° E 18:05:21 10° NNE
NOSS 6 (F) 4.4 17:59:26 10° WSW 18:02:29 73° SSE 18:03:12 46° E
Cosmos 1626 Rocket 3.5 17:59:12 10° NNW 18:03:41 86° ENE 18:07:01 18° SSE
Celestis-02/Orion 38 4.5 17:58:41 10° NE 18:03:48 89° SE 18:08:56 10° SW
COSMOS 2487 4.2 18:01:53 10° NNW 18:04:32 20° NNE 18:05:27 18° NE
NOSS 3-1 (C) 3.8 18:00:59 10° WNW 18:07:40 86° SSW 18:12:43 25° ESE
COSMOS 2455 3.4 18:02:22 10° S 18:07:44 35° ESE 18:13:08 10° ENE
Cosmos 2263 Rocket 3.4 18:02:28 10° W 18:07:45 40° NNW 18:13:06 10° NE
Cosmos 1844 Rocket 3.1 18:03:11 10° WSW 18:08:46 66° NW 18:14:24 10° NE
H-2A R/B 3.8 18:05:49 10° SSW 18:10:27 33° W 18:15:14 10° NNW
Meteor 1-21 Rocket 4.3 18:04:43 10° NNW 18:10:34 85° WSW 18:15:51 13° SSE
Cosmos 2084 4.4 18:07:28 10° WNW 18:11:41 42° SW 18:13:56 24° SSE
Cosmos 1655 Rocket 4.1 18:06:14 10° NNW 18:12:33 82° WSW 18:18:54 10° S
Landsat 7 4.0 18:12:26 31° SE 18:14:28 54° ENE 18:19:09 10° NNW
Cosmos 2279 Rocket 3.9 18:08:20 10° S 18:14:35 74° E 18:20:52 10° NNE
Cosmos 1455 Rocket 2.9 18:10:17 10° S 18:14:38 71° E 18:18:59 10° NNE
DMSP B5D2-2 4.1 18:09:25 10° NNE 18:14:41 58° ESE 18:19:54 10° S
Meteor 1-11 4.3 18:12:21 10° NNW 18:17:54 60° ENE 18:20:38 30° SE
SJ-6B 3.9 18:15:29 10° S 18:19:09 43° W 18:22:55 10° NNW
Cosmos 2285 Rocket 4.3 18:13:28 10° SW 18:19:50 72° NW 18:26:17 10° NE
Aureole 1 Rocket 3.1 18:16:21 10° NW 18:21:30 70° NE 18:22:51 41° ESE
NOSS 2-3 (E) 4.4 18:16:06 10° WNW 18:21:36 89° SSW 18:25:25 29° ESE
USA 245 4.1 18:24:17 21° NNE 18:24:17 21° NNE 18:25:23 10° N
NOSS 8 (E) 4.5 18:21:09 10° W 18:24:19 74° N 18:25:14 46° E
OBJECT-B 1.6 18:22:41 24° SSW 18:24:25 51° W 18:27:39 10° NNW
SPOT 1/Viking Rocket 3.7 18:23:02 33° SE 18:25:10 57° ENE 18:30:14 10° NNW
Cosmos 2180 Rocket 4.5 18:19:35 10° S 18:25:54 73° E 18:32:18 10° NNE
SL-27 R/B 2.6 18:23:48 10° NNW 18:27:24 58° NE 18:27:52 53° E
Cosmos 1328 3.7 18:23:31 10° NNW 18:27:31 70° ENE 18:28:30 47° SE
Cosmos 2278 Rocket 2.1 18:22:58 10° SSW 18:28:35 68° SE 18:34:14 10° NE
ATLAS CENTAUR R/B 1.1 18:24:58 10° WNW 18:28:39 69° SSW 18:29:19 54° SSE
Cosmos 1953 2.5 18:29:04 48° ESE 18:29:13 48° E 18:33:04 10° NNE
Cosmos 2297 4.4 18:31:24 31° E 18:31:24 31° E 18:35:34 10° NE
Cosmos 1190 Rocket 4.1 18:25:50 10° NW 18:31:05 71° WSW 18:33:49 28° SSE
NOSS 2-2 (C) 3.7 18:29:38 10° W 18:33:42 78° N 18:36:13 29° ENE
Cosmos 1125 Rocket 4.5 18:29:57 10° WSW 18:35:08 49° NW 18:40:18 10° NE
CZ-2C R/B 3.9 18:31:34 10° NNE 18:35:55 45° E 18:36:19 44° ESE
Cosmos 1844 4.2 18:30:23 10° WSW 18:35:58 59° NW 18:41:31 10° NE
Cosmos 1340 4.1 18:33:45 10° N 18:36:46 25° NE 18:36:46 25° NE
Lacrosse 4 Rocket 4.3 18:40:01 10° W 18:40:43 10° WSW 18:41:25 10° WSW
Cosmos 1340 Rocket 3.8 18:37:31 10° SW 18:41:26 49° WNW 18:45:24 10° NNE
Lacrosse 5 rocket 4.0 18:43:10 10° WSW 18:44:57 12° SW 18:46:45 10° SSW
Cosmos 1908 4.4 18:46:37 28° NE 18:46:37 28° NE 18:48:50 10° NNE
Cosmos 1943 Rocket 3.9 18:48:46 17° ENE 18:48:46 17° ENE 18:50:18 10° NE
NOSS 2-3 (D) 4.4 18:42:57 10° WNW 18:48:30 81° SSW 18:51:27 37° ESE
SPOT 5 3.3 18:48:17 42° ESE 18:49:47 57° ENE 18:55:02 10° NNW
Cosmos 1825 Rocket 3.5 18:45:24 10° NNW 18:49:53 82° ENE 18:50:53 54° SSE
Cosmos 2266 Rocket 4.3 18:45:26 10° NNW 18:51:23 62° W 18:56:18 16° S
CZ-4C R/B 2.5 18:48:45 10° SSW 18:53:52 45° SE 19:00:00 10° ENE
Cosmos 1758 3.6 18:50:55 12° SSW 18:54:39 67° WNW 18:58:45 10° NNE
Cosmos 1758 Rocket 3.6 18:50:31 10° NNW 18:55:03 78° WSW 18:56:24 45° S
Exosat Rocket 4.2 18:51:09 10° WSW 18:56:05 58° NW 19:01:49 10° NE
MetOp-B 4.2 18:53:55 32° S 18:56:30 73° WSW 19:01:53 10° NNW
CZ-2C R/B 2.9 18:51:42 10° NNE 18:57:18 76° WNW 19:02:55 10° SSW
Cosmos 2227 Rocket 3.2 18:52:12 10° NW 18:57:32 40° NNE 19:00:18 25° ENE
Meteor 2-21 Rocket 4.4 18:52:27 10° NNW 18:58:42 86° W 19:01:46 33° S
Cosmos 1140 Rocket 4.1 18:54:30 10° NW 18:59:28 49° WSW 19:01:41 30° S
CARTOSAT-1 3.5 19:00:01 62° E 19:00:23 65° ENE 19:04:41 10° NNW
SPOT 3 Rocket 4.5 18:57:22 17° SSW 19:01:04 45° W 19:06:05 10° NNW
Cosmos 1703 3.8 18:57:35 10° NNW 19:01:24 54° W 19:02:19 42° SW
Spot 2 Rocket 3.5 19:02:21 44° S 19:03:59 82° WSW 19:09:05 10° NNW
Terra 2.0 19:06:28 52° E 19:06:59 55° ENE 19:11:39 10° NNW
Timation 2 Rocket 4.3 19:01:12 10° NW 19:07:19 59° NNE 19:09:46 36° E
APEX 3.4 19:08:02 70° E 19:08:02 70° E 19:12:34 10° NE
Cosmos 1544 Rocket 3.9 19:05:34 15° SSW 19:09:07 61° WNW 19:13:27 10° NNE
USA 229 DEB 3.9 19:05:04 10° WNW 19:12:04 70° SSW 19:14:46 42° SE
Resurs 01 Rocket 2.7 19:10:02 25° SSW 19:12:06 41° W 19:16:20 10° NNW
USA 229 3.9 19:05:10 10° WNW 19:12:10 70° SSW 19:14:51 42° SE
Aureole 2 Rocket 3.9 19:10:38 10° WSW 19:13:37 33° NW 19:16:32 10° NNE
Cosmos 1470 4.1 19:10:13 10° SW 19:13:52 39° WNW 19:17:34 10° N
Cosmos 1741 Rocket 3.9 19:09:00 10° NW 19:14:22 82° NE 19:15:22 59° SE
NOSS 3-4 (A) 3.4 19:14:13 10° WSW 19:20:24 87° SSE 19:25:36 18° ENE
NOSS 3-4 (C) 3.4 19:14:18 10° WSW 19:20:29 87° SSE 19:25:43 18° ENE
Cosmos 1076 Rocket 4.5 19:16:30 10° N 19:20:04 35° NE 19:20:04 35° NE
Cosmos 1833 4.3 19:15:50 10° NW 19:21:36 69° SW 19:23:00 50° S
Cosmos 968 Rocket 4.5 19:18:10 10° NW 19:23:06 37° NNE 19:24:25 32° ENE
Cosmos 2058 3.7 19:19:07 10° N 19:22:33 41° NE 19:22:33 41° NE
NOSS 3-1 (A) 3.9 19:17:39 10° WNW 19:24:27 72° SSW 19:27:06 44° SE
IGS 5A 4.0 19:24:23 46° SW 19:24:58 51° W 19:29:03 10° NNW
ARIANE 5 R/B 3.3 19:24:52 40° SW 19:25:49 47° W 19:30:03 10° NNW
NOSS 2-2 (E) 3.8 19:23:50 10° WNW 19:28:14 82° N 19:29:10 60° E
Cosmos 1386 Rocket 4.5 19:22:04 10° NNW 19:28:22 71° ENE 19:29:49 53° SE
Cosmos 1606 Rocket 4.4 19:29:53 39° NE 19:29:53 39° NE 19:32:50 10° NNE
RESURS DK-1 2.5 19:24:46 10° SW 19:28:56 72° NW 19:29:52 51° NNE
Cosmos 2219 3.8 19:23:23 10° NW 19:28:57 50° NNE 19:30:33 39° ENE
Cosmos 1726 3.2 19:28:37 36° WSW 19:29:32 44° WNW 19:33:09 10° N
SJ 16-02 4.0 19:29:36 10° NW 19:32:21 16° N 19:35:06 10° NE
Cosmos 1953 Rocket 3.7 19:28:37 10° NNW 19:32:57 66° W 19:33:06 65° WSW
Cosmos 1408 4.1 19:30:03 10° N 19:32:11 29° NNE 19:32:11 29° NNE
Cosmos 2056 Rocket 4.4 19:37:55 34° ENE 19:37:55 34° ENE 19:41:07 10° NE
Cosmos 1346 Rocket 3.9 19:33:14 10° N 19:36:06 36° NNE 19:36:06 36° NNE
ERS-1 Rocket 3.0 19:37:55 64° SSW 19:38:36 74° WSW 19:43:40 10° NNW
Cosmos 2228 3.8 19:40:16 42° NNE 19:40:16 42° NNE 19:43:13 10° NNE
NOSS 2-2 (D) 3.8 19:35:10 10° WNW 19:39:29 81° N 19:39:57 72° ENE
Cosmos 1892 3.7 19:36:05 10° NNW 19:38:47 43° N 19:38:47 43° N
COSMOS 2487 3.8 19:36:39 10° NNW 19:38:54 37° NNW 19:38:54 37° NNW
Cosmos 1825 3.7 19:36:47 10° N 19:39:08 29° NNE 19:39:08 29° NNE
Cosmos 2297 Rocket 2.6 19:37:21 10° NW 19:42:57 54° NNE 19:44:10 45° ENE
Meteor 2-8 Rocket 4.4 19:42:53 59° ESE 19:43:14 60° E 19:49:13 10° NNE
ATLAS 2AS CENTAUR R/B 2.9 19:35:29 10° WSW 19:43:30 88° NNW 19:51:08 10° ENE
Meteor 1-16 Rocket 4.4 19:40:55 28° SSW 19:44:11 76° WNW 19:50:01 10° NNE
SL-24 DEB 4.2 19:41:14 10° N 19:45:42 83° N 19:45:42 83° N
Cosmos 1850 Rocket 4.0 19:41:59 10° NW 19:47:11 68° WSW 19:47:34 65° SSW
Cosmos 1553 Rocket 4.0 19:46:59 59° ESE 19:47:39 62° E 19:53:58 10° NNE
ALOS 2 4.1 19:52:59 28° NE 19:52:59 28° NE 19:56:19 10° N
Cosmos 2263 Rocket 3.5 19:47:47 10° WNW 19:52:57 35° N 19:56:30 18° ENE
COSMOS 2455 2.7 19:47:09 10° SW 19:53:13 87° SE 19:59:19 10° NE
Cosmos 1844 Rocket 4.1 19:48:21 10° W 19:53:33 37° NNW 19:58:47 10° NE
Cosmos 1356 Rocket 4.0 19:54:33 54° N 19:54:33 54° N 19:57:58 10° NNE
Cosmos 2151 4.2 19:51:02 10° N 19:54:10 34° NNE 19:54:10 34° NNE
Cosmos 2369 Rocket 3.5 19:57:47 27° ENE 19:57:47 27° ENE 20:00:35 10° NE
Spot 4 4.5 19:56:31 46° NE 19:56:31 46° NE 20:00:52 10° NNW
In-Cosmos 22 Rocket 4.0 19:51:18 10° NNW 19:56:46 76° WSW 19:57:12 71° SSW
SL-08 ROCKET BODY 4.4 19:51:33 10° NNW 19:57:26 76° W 19:58:26 61° SSW
Cosmos 2082 4.5 19:52:05 10° NW 19:57:35 45° NNE 19:59:07 37° ENE
NOSS 3-1 (C) 4.4 19:51:39 10° WNW 19:58:22 49° SW 20:00:06 42° S
H-2A R/B 4.3 19:54:27 10° NNE 19:57:28 46° NNE 19:57:28 46° NNE
Cosmos 1745 Rocket 3.9 19:52:49 10° NNW 19:59:00 81° W 20:00:05 62° S
Cosmos 1953 4.0 20:04:43 28° W 20:05:48 32° WNW 20:09:26 10° N
Cosmos 1624 Rocket 4.5 20:07:53 50° NE 20:07:53 50° NE 20:11:51 10° NE
ATLAS CENTAUR R/B 3.6 20:04:16 10° WNW 20:05:28 16° W 20:05:28 16° W
Cosmos 1340 4.2 20:09:08 10° NNW 20:11:31 36° NW 20:11:31 36° NW
Cosmos 2278 Rocket 3.0 20:07:27 10° WSW 20:12:59 51° NNW 20:18:32 10° NE
Cosmos 2297 3.6 20:13:14 60° SW 20:14:21 85° NW 20:20:03 10° NE
NOSS 2-2 (C) 4.2 20:20:01 10° WNW 20:23:35 60° WNW 20:23:35 60° WNW
Meteor 2-15 4.3 20:27:40 76° E 20:27:40 76° E 20:33:48 10° NNE
SPOT 5 3.9 20:27:31 41° WSW 20:28:03 42° W 20:33:10 10° NNW
Meteor 2-3 Rocket 4.0 20:22:38 10° NNW 20:28:00 54° ENE 20:28:00 54° ENE
Cosmos 1943 Rocket 2.5 20:30:16 53° NE 20:30:16 53° NE 20:34:29 10° NE
Cosmos 1709 Rocket 3.9 20:26:08 10° NNW 20:32:22 80° W 20:32:48 75° SSW
Cosmos 2074 Rocket 4.1 20:26:11 10° NNW 20:32:25 59° ENE 20:32:41 59° ENE
Cosmos 2154 Rocket 4.4 20:30:45 10° NNW 20:36:47 47° ENE 20:37:08 47° ENE
Cosmos 2058 Rocket 4.1 20:39:51 42° N 20:39:51 42° N 20:42:54 10° NNE
CZ-4C R/B 2.3 20:36:18 10° WSW 20:42:01 88° SSE 20:49:02 10° ENE
Cosmos 2227 Rocket 2.2 20:36:38 10° NW 20:42:06 76° NNE 20:42:06 76° NNE
Terra 2.9 20:45:21 37° W 20:45:21 37° W 20:49:25 10° NNW
S3M 3.8 20:47:18 84° WSW 20:47:28 85° WNW 20:53:38 10° NNE
Timation 2 Rocket 4.1 20:48:50 10° NW 20:54:43 63° WSW 20:54:43 63° WSW
Cosmos 1354 Rocket 4.4 20:55:10 10° NW 20:59:43 60° N 20:59:43 60° N
SME Rocket 4.0 20:55:13 10° NNE 20:59:32 53° N 20:59:32 53° N
Cosmos 1486 Rocket 4.4 20:56:29 10° NW 21:00:54 61° NW 21:00:54 61° NW
Cosmos 968 Rocket 3.9 21:00:07 10° NW 21:04:24 59° NW 21:04:24 59° NW
Cosmos 1503 Rocket 4.4 21:00:59 10° NW 21:05:15 59° NNW 21:05:15 59° NNW
RESURS DK-1 4.4 21:03:45 10° W 21:10:35 14° NE 21:11:22 10° NE
NOSS 3-4 (A) 3.6 21:05:10 10° W 21:11:33 81° N 21:12:58 59° E
NOSS 3-4 (C) 3.6 21:05:16 10° W 21:11:39 81° N 21:13:06 59° E
SJ 16-02 3.3 21:08:50 10° NNW 21:12:27 24° NNE 21:12:47 24° NE
Meteor 2-17 Rocket 4.4 21:06:37 10° NNW 21:12:29 78° WNW 21:12:29 78° WNW
Cosmos 2219 3.6 21:07:44 10° NW 21:12:27 58° WNW 21:12:27 58° WNW
Cosmos 883 Rocket 4.4 21:14:03 85° NW 21:14:03 85° NW 21:20:13 10° NNE
Meteor 2-10 Rocket 3.9 21:17:19 67° NNE 21:17:19 67° NNE 21:22:06 10° NNE
Cosmos 2056 Rocket 4.1 21:18:13 53° NW 21:18:17 53° NW 21:23:24 10° NE
Cosmos 2184 Rocket 4.0 21:20:09 10° NNW 21:26:01 77° WNW 21:26:01 77° WNW
Cosmos 2297 Rocket 2.8 21:21:36 10° NW 21:25:58 50° WNW 21:25:58 50° WNW
ALOS 2 4.0 21:30:23 36° NNW 21:30:23 36° NNW 21:33:02 10° NNW
Cosmos 2315 Rocket 4.0 21:33:48 78° NW 21:33:48 78° NW 21:39:57 10° NNE
ATLAS 2AS CENTAUR R/B 2.9 21:26:57 10° W 21:34:54 82° N 21:38:35 34° E
Cosmos 1452 Rocket 4.1 21:38:05 53° NNE 21:38:05 53° NNE 21:42:10 10° NE
Thor Agena Rocket 4.4 21:32:34 10° NNE 21:36:25 45° NE 21:36:25 45° NE
Cosmos 2263 Rocket 2.7 21:32:22 10° NW 21:37:56 54° NNE 21:38:10 54° NE
Cosmos 1844 Rocket 4.0 21:33:31 10° NW 21:38:44 37° NNE 21:43:58 10° E
Cosmos 1610 Rocket 4.5 21:32:40 10° NNW 21:38:33 80° NNW 21:38:33 80° NNW
Cosmos 2369 Rocket 2.5 21:39:33 65° N 21:39:33 65° N 21:44:51 10° NE
COSMOS 2455 3.4 21:33:38 10° W 21:39:37 57° N 21:45:36 10° ENE
Cosmos 2082 4.1 21:36:27 10° NW 21:40:58 57° NW 21:40:58 57° NW
Cosmos 371 Rocket 4.4 21:44:38 42° NNW 21:44:38 42° NNW 21:48:49 10° NNE
SL-16 R/B 3.7 21:43:49 29° E 21:45:44 36° NE 21:51:17 10° NNW
Cosmos 1656 Rocket 4.1 21:52:19 57° NNE 21:52:19 57° NNE 21:56:50 10° NE
Cosmos 2278 Rocket 3.7 21:53:01 10° WNW 21:58:11 35° N 22:03:22 10° ENE
Cosmos 2218 Rocket 4.3 21:52:33 10° NNW 21:58:56 60° ENE 21:59:07 60° ENE
Cosmos 1943 Rocket 3.1 22:11:47 38° WNW 22:13:08 45° NNW 22:18:29 10° NE
ATLAS 5 CENTAUR R/B 3.8 22:24:09 21° ENE 22:24:09 21° ENE 22:25:57 10° ENE
Cosmos 2154 Rocket 4.4 22:16:27 10° NNW 22:21:54 53° WNW 22:21:54 53° WNW
Nimbus 7 Rocket 4.5 22:18:27 10° NNE 22:24:05 77° NNE 22:24:05 77° NNE
Cosmos 2227 Rocket 3.7 22:20:58 10° NW 22:23:54 27° WNW 22:23:54 27° WNW
CZ-4C R/B 2.6 22:24:44 10° W 22:30:51 81° N 22:38:20 10° E
Cosmos 2181 Rocket 4.4 22:37:08 54° E 22:37:08 54° E 22:43:09 10° NNE
Meteor 1-27 4.4 22:40:37 67° N 22:40:37 67° N 22:45:30 10° NNE
Nadezhda 1 Rocket 4.0 22:40:55 75° NNW 22:40:55 75° NNW 22:46:38 10° NNE
RESURS DK-1 4.3 22:46:38 29° N 22:46:38 29° N 22:50:15 10° ENE
Cosmos 2221 4.1 22:48:40 34° NNE 22:48:40 34° NNE 22:51:13 10° NNE
SJ 16-02 3.0 22:47:25 10° NNW 22:49:45 30° NNW 22:49:45 30° NNW
Cosmos 2341 Rocket 4.3 22:46:52 10° NNW 22:52:27 56° WNW 22:52:27 56° WNW
Resurs 1-4 Rocket 3.7 22:52:17 10° NNE 22:56:36 25° E 22:56:50 25° E
NOSS 3-4 (A) 4.2 22:56:03 10° WNW 23:00:21 44° W 23:00:21 44° W
NOSS 3-4 (C) 4.2 22:56:09 10° WNW 23:00:28 45° W 23:00:28 45° W
Cosmos 1821 Rocket 4.0 23:00:21 10° NNW 23:06:40 71° ENE 23:07:03 69° E
SL-8 Rocket 4.3 23:02:01 10° NNW 23:07:31 56° WNW 23:07:31 56° WNW
Meteor 1-25 Rocket 4.3 23:02:35 10° NNW 23:08:00 75° NNE 23:08:00 75° NNE
Cosmos 2297 Rocket 4.3 23:06:27 10° WNW 23:07:45 14° WNW 23:07:45 14° WNW
Cosmos 1656 4.0 23:13:06 58° ENE 23:13:06 58° ENE 23:17:47 10° NE
Cosmos 1898 Rocket 3.9 23:08:01 10° NW 23:12:25 60° N 23:12:25 60° N
Thor Agena Rocket 4.5 23:12:06 10° NNE 23:16:59 40° NW 23:16:59 40° NW
Cosmos 2369 4.3 23:21:40 47° E 23:21:40 47° E 23:26:35 10° NE
Cosmos 2263 Rocket 3.2 23:16:29 10° NW 23:19:49 35° WNW 23:19:49 35° WNW
Cosmos 1302 Rocket 4.5 23:23:17 55° NNW 23:23:17 55° NNW 23:28:08 10° NE
Cosmos 1937 Rocket 3.8 23:18:16 10° NW 23:22:50 62° N 23:22:50 62° N
Cosmos 1844 Rocket 3.0 23:17:54 10° NW 23:23:33 64° NE 23:25:27 41° ESE
CZ-2D R/B 3.2 23:18:46 10° NNE 23:23:34 34° E 23:23:49 34° E
Cosmos 2369 Rocket 3.5 23:21:19 24° WNW 23:24:01 38° NNW 23:29:21 10° NE
Cosmos 1697 Rocket 3.2 23:24:55 51° E 23:24:55 51° E 23:29:45 10° NE
IRAS Rocket 4.3 23:24:42 72° E 23:24:55 73° ENE 23:30:29 10° NNW
Meteor 1-20 Rocket 4.4 23:19:56 10° NNW 23:24:31 63° NNW 23:24:31 63° NNW
ATLAS 2AS CENTAUR R/B 2.7 23:18:17 10° WNW 23:25:52 70° SW 23:25:52 70° SW
COSMOS 2455 3.3 23:20:20 10° WNW 23:26:20 59° NNE 23:32:20 10° E
SL-16 R/B 2.4 23:28:54 84° WSW 23:28:57 84° WSW 23:35:11 10° NNW
Cosmos 2366 rocket 4.3 23:23:28 10° NNW 23:29:05 52° WNW 23:29:05 52° WNW
Lacrosse 5 3.8 23:32:46 20° ESE 23:32:46 20° ESE 23:34:28 10° E
Cosmos 1980 Rocket 2.9 23:34:27 41° ESE 23:34:27 41° ESE 23:39:28 10° NE
ADEOS II 3.9 23:30:32 10° NE 23:34:42 23° E 23:36:19 20° ESE
Meteor 2-2 Rocket 4.5 23:40:50 61° WNW 23:40:50 61° WNW 23:46:46 10° NNE
Cosmos 1151 Rocket 4.0 23:44:12 46° NE 23:44:12 46° NE 23:47:35 10° NNE
Cosmos 2278 Rocket 3.3 23:38:07 10° NW 23:43:32 42° NNE 23:48:55 10° E
Cosmos 1605 Rocket 4.4 23:39:26 10° NNW 23:45:49 61° ENE 23:48:30 35° SE
Cosmos 2322 Rocket 4.0 23:46:50 18° ESE 23:48:18 20° ESE 23:52:20 10° ENE
USA 234 3.3 23:43:59 10° E 23:49:53 57° SSE 23:49:53 57° SSE
Cosmos 1241 Rocket 4.4 23:50:04 68° W 23:50:56 82° NNW 23:57:31 10° ENE
Cosmos 1844 3.7 23:45:46 10° NW 23:51:24 74° NE 23:54:28 28° ESE
Nadezhda 3 Rocket 4.1 23:51:41 57° SE 23:52:38 65° E 23:58:46 10° NNE
Cosmos 1818 3.5 23:54:20 81° NNW 23:54:20 81° NNW 23:59:48 10° ENE
